| time (UTC) | temp F | wind direction | speed MPH | gust MPH | rain 1hr in | rain 24hr in | rain mn in | humidity % | barometer mb |
| 20260502152220 | 51 | 11 | 0.0 | 2.0 | 0.00 | 0.00 | 0.00 | 61 | 1014.1 |
| 20260502151720 | 51 | 11 | 0.0 | 2.0 | 0.00 | 0.00 | 0.00 | 60 | 1014.1 |
| 20260502151146 | 51 | 11 | 0.0 | 2.0 | 0.00 | 0.00 | 0.00 | 58 | 1014.0 |
| 20260502150646 | 51 | 11 | 0.0 | 2.0 | 0.00 | 0.00 | 0.00 | 58 | 1014.0 |
| 20260502150146 | 50 | 11 | 0.0 | 2.0 | 0.00 | 0.00 | 0.00 | 58 | 1013.9 |
| 20260502130646 | 46 | 11 | 0.0 | 2.0 | 0.00 | 0.00 | 0.00 | 67 | 1013.7 |
| 20260502130145 | 46 | 11 | 0.0 | 2.0 | 0.00 | 0.00 | 0.00 | 67 | 1013.7 |
| 20260502123646 | 47 | 11 | 0.0 | 2.0 | 0.00 | 0.00 | 0.00 | 65 | 1013.6 |
| 20260502123144 | 47 | 11 | 0.0 | 2.0 | 0.00 | 0.00 | 0.00 | 65 | 1013.6 |
| 20260502122645 | 47 | 11 | 0.0 | 2.0 | 0.00 | 0.00 | 0.00 | 65 | 1013.5 |
| 20260502122145 | 47 | 11 | 0.0 | 2.0 | 0.00 | 0.00 | 0.00 | 64 | 1013.6 |
| 20260502121646 | 47 | 11 | 0.0 | 2.0 | 0.00 | 0.00 | 0.00 | 64 | 1013.6 |
| 20260502121144 | 47 | 11 | 0.0 | 2.0 | 0.00 | 0.00 | 0.00 | 63 | 1013.5 |
| 20260502120645 | 48 | 11 | 0.0 | 2.0 | 0.00 | 0.00 | 0.00 | 63 | 1013.5 |
| 20260502120145 | 48 | 11 | 0.0 | 2.0 | 0.00 | 0.00 | 0.00 | 62 | 1013.5 |
| 20260502115645 | 48 | 11 | 0.0 | 2.0 | 0.00 | 0.00 | 0.00 | 62 | 1013.5 |
| 20260502115145 | 48 | 11 | 0.0 | 2.0 | 0.00 | 0.00 | 0.00 | 62 | 1013.5 |
| 20260502114644 | 48 | 11 | 0.0 | 2.0 | 0.00 | 0.00 | 0.00 | 62 | 1013.5 |
| 20260502114145 | 48 | 11 | 0.0 | 2.0 | 0.00 | 0.00 | 0.00 | 62 | 1013.5 |
| 20260502113644 | 49 | 11 | 0.0 | 2.0 | 0.00 | 0.00 | 0.00 | 62 | 1013.4 |
| 20260502113145 | 49 | 11 | 0.0 | 2.0 | 0.00 | 0.00 | 0.00 | 61 | 1013.5 |
| 20260502112645 | 49 | 11 | 0.0 | 2.0 | 0.00 | 0.00 | 0.00 | 61 | 1013.5 |
| 20260502112146 | 49 | 11 | 0.0 | 2.0 | 0.00 | 0.00 | 0.00 | 61 | 1013.4 |
| 20260502111644 | 49 | 11 | 0.0 | 2.0 | 0.00 | 0.00 | 0.00 | 61 | 1013.4 |
| 20260502111144 | 49 | 11 | 0.0 | 2.0 | 0.00 | 0.00 | 0.00 | 61 | 1013.4 |
| 20260502110644 | 49 | 11 | 0.0 | 2.0 | 0.00 | 0.00 | 0.00 | 60 | 1013.5 |
| 20260502110144 | 49 | 11 | 0.0 | 2.0 | 0.00 | 0.00 | 0.00 | 61 | 1013.5 |
| 20260502105645 | 49 | 11 | 0.0 | 2.0 | 0.00 | 0.00 | 0.00 | 61 | 1013.5 |
| 20260502105146 | 49 | 11 | 0.0 | 2.0 | 0.00 | 0.00 | 0.00 | 60 | 1013.4 |
| 20260502104644 | 49 | 11 | 0.0 | 2.0 | 0.00 | 0.00 | 0.00 | 61 | 1013.5 |
| 20260502104145 | 49 | 11 | 0.0 | 2.0 | 0.00 | 0.00 | 0.00 | 61 | 1013.5 |
| 20260502103646 | 49 | 11 | 0.0 | 2.0 | 0.00 | 0.00 | 0.00 | 61 | 1013.5 |
| 20260502103144 | 49 | 11 | 0.0 | 2.0 | 0.00 | 0.00 | 0.00 | 61 | 1013.5 |
| 20260502102644 | 49 | 11 | 0.0 | 2.0 | 0.00 | 0.00 | 0.00 | 61 | 1013.5 |
| 20260502102145 | 50 | 11 | 0.0 | 1.0 | 0.00 | 0.00 | 0.00 | 61 | 1013.5 |
| 20260502101645 | 50 | 11 | 0.0 | 1.0 | 0.00 | 0.00 | 0.00 | 62 | 1013.5 |
| 20260502101144 | 50 | 11 | 0.0 | 1.0 | 0.00 | 0.00 | 0.00 | 62 | 1013.4 |
| 20260502100645 | 50 | 11 | 0.0 | 1.0 | 0.00 | 0.00 | 0.00 | 62 | 1013.4 |
| 20260502100145 | 50 | 11 | 0.0 | 1.0 | 0.00 | 0.00 | 0.00 | 63 | 1013.3 |
| 20260502091143 | 50 | 11 | 0.0 | 0.0 | 0.00 | 0.00 | 0.00 | 62 | 1013.3 |
| 20260502090644 | 51 | 11 | 0.0 | 0.0 | 0.00 | 0.00 | 0.00 | 61 | 1013.2 |
| 20260502090144 | 51 | 11 | 0.0 | 0.0 | 0.00 | 0.00 | 0.00 | 61 | 1013.2 |
| 20260502071144 | 51 | 11 | 0.0 | 0.0 | 0.00 | 0.00 | 0.00 | 60 | 1012.9 |
| 20260502070644 | 51 | 11 | 0.0 | 0.0 | 0.00 | 0.00 | 0.00 | 60 | 1012.8 |
| 20260502070144 | 51 | 11 | 0.0 | 0.0 | 0.00 | 0.00 | 0.00 | 59 | 1012.8 |
| 20260502065645 | 51 | 11 | 0.0 | 0.0 | 0.00 | 0.00 | 0.00 | 59 | 1012.8 |
| 20260502065143 | 51 | 11 | 0.0 | 0.0 | 0.00 | 0.00 | 0.00 | 59 | 1012.7 |
| 20260502064644 | 51 | 11 | 0.0 | 0.0 | 0.00 | 0.00 | 0.00 | 59 | 1012.7 |
| 20260502064144 | 51 | 11 | 0.0 | 0.0 | 0.00 | 0.00 | 0.00 | 59 | 1012.7 |
| 20260502063644 | 51 | 11 | 0.0 | 0.0 | 0.00 | 0.00 | 0.00 | 59 | 1012.7 |
| 20260502063143 | 51 | 11 | 0.0 | 0.0 | 0.00 | 0.00 | 0.00 | 59 | 1012.7 |
| 20260502062643 | 51 | 11 | 0.0 | 0.0 | 0.00 | 0.00 | 0.00 | 58 | 1012.6 |
| 20260502062144 | 51 | 11 | 0.0 | 0.0 | 0.00 | 0.00 | 0.00 | 58 | 1012.6 |
| 20260502061645 | 51 | 11 | 0.0 | 0.0 | 0.00 | 0.00 | 0.00 | 58 | 1012.6 |
| 20260502061143 | 51 | 11 | 0.0 | 0.0 | 0.00 | 0.00 | 0.00 | 58 | 1012.6 |
| 20260502060644 | 51 | 11 | 0.0 | 0.0 | 0.00 | 0.00 | 0.00 | 58 | 1012.6 |
| 20260502060144 | 51 | 11 | 0.0 | 0.0 | 0.00 | 0.00 | 0.00 | 58 | 1012.6 |
| 20260502055645 | 51 | 11 | 0.0 | 13.0 | 0.00 | 0.00 | 0.00 | 58 | 1012.6 |
| 20260502055143 | 51 | 11 | 0.0 | 13.0 | 0.00 | 0.00 | 0.00 | 58 | 1012.5 |
| 20260502054643 | 51 | 11 | 0.0 | 13.0 | 0.00 | 0.00 | 0.00 | 58 | 1012.6 |
| 20260502054143 | 52 | 11 | 0.0 | 13.0 | 0.00 | 0.00 | 0.00 | 58 | 1012.5 |
| 20260502053644 | 52 | 11 | 0.0 | 13.0 | 0.00 | 0.00 | 0.00 | 57 | 1012.5 |
| 20260502053144 | 52 | 11 | 0.0 | 13.0 | 0.00 | 0.00 | 0.00 | 57 | 1012.4 |
| 20260502052643 | 52 | 11 | 0.0 | 13.0 | 0.00 | 0.00 | 0.00 | 57 | 1012.4 |
| 20260502052143 | 52 | 11 | 0.0 | 13.0 | 0.00 | 0.00 | 0.00 | 57 | 1012.4 |
| 20260502051644 | 52 | 11 | 0.0 | 13.0 | 0.00 | 0.00 | 0.00 | 56 | 1012.2 |
| 20260502051145 | 52 | 6 | 0.0 | 13.0 | 0.00 | 0.00 | 0.00 | 57 | 1012.2 |
| 20260502050643 | 52 | 5 | 1.0 | 13.0 | 0.00 | 0.00 | 0.00 | 56 | 1012.1 |
| 20260502050143 | 53 | 9 | 0.0 | 13.0 | 0.00 | 0.00 | 0.00 | 56 | 1012.1 |
| 20260502045644 | 53 | 17 | 1.0 | 13.0 | 0.00 | 0.00 | 0.00 | 56 | 1012.1 |
| 20260502045143 | 53 | 8 | 3.0 | 13.0 | 0.00 | 0.00 | 0.00 | 56 | 1012.1 |
| 20260502044643 | 53 | 5 | 2.0 | 13.0 | 0.00 | 0.00 | 0.00 | 56 | 1012.0 |
| 20260502044143 | 53 | 5 | 2.0 | 13.0 | 0.00 | 0.00 | 0.00 | 56 | 1012.0 |
| 20260502043643 | 53 | 358 | 2.0 | 13.0 | 0.00 | 0.00 | 0.00 | 56 | 1011.9 |
| 20260502043144 | 53 | 0 | 1.0 | 13.0 | 0.00 | 0.00 | 0.00 | 56 | 1011.8 |
| 20260502042644 | 53 | 356 | 2.0 | 13.0 | 0.00 | 0.00 | 0.00 | 55 | 1011.7 |
| 20260502042144 | 53 | 13 | 1.0 | 13.0 | 0.00 | 0.00 | 0.00 | 55 | 1011.7 |
| 20260502041644 | 53 | 11 | 2.0 | 13.0 | 0.00 | 0.00 | 0.00 | 55 | 1011.6 |
| 20260502041143 | 54 | 13 | 2.0 | 13.0 | 0.00 | 0.00 | 0.00 | 54 | 1011.6 |
| 20260502040645 | 54 | 14 | 2.0 | 13.0 | 0.00 | 0.00 | 0.00 | 54 | 1011.6 |
| 20260502040144 | 54 | 2 | 3.0 | 13.0 | 0.00 | 0.00 | 0.00 | 54 | 1011.5 |
| 20260502035644 | 54 | 16 | 3.0 | 13.0 | 0.00 | 0.00 | 0.00 | 53 | 1011.4 |
| 20260502035143 | 54 | 325 | 2.0 | 13.0 | 0.00 | 0.00 | 0.00 | 53 | 1011.3 |
| 20260502034644 | 54 | 13 | 2.0 | 13.0 | 0.00 | 0.00 | 0.00 | 53 | 1011.3 |
| 20260502034144 | 55 | 5 | 3.0 | 13.0 | 0.00 | 0.00 | 0.00 | 53 | 1011.3 |
| 20260502033643 | 55 | 5 | 5.0 | 13.0 | 0.00 | 0.00 | 0.00 | 53 | 1011.1 |
| 20260502033143 | 55 | 10 | 6.0 | 13.0 | 0.00 | 0.00 | 0.00 | 52 | 1011.1 |
| 20260502032643 | 55 | 3 | 6.0 | 13.0 | 0.00 | 0.00 | 0.00 | 52 | 1011.0 |
| 20260502032143 | 55 | 13 | 5.0 | 12.0 | 0.00 | 0.00 | 0.00 | 52 | 1011.0 |
| 20260502031643 | 55 | 17 | 3.0 | 12.0 | 0.00 | 0.00 | 0.00 | 52 | 1010.9 |
| 20260502031143 | 55 | 359 | 3.0 | 12.0 | 0.00 | 0.00 | 0.00 | 51 | 1010.8 |
| 20260502030642 | 56 | 62 | 3.0 | 12.0 | 0.00 | 0.00 | 0.00 | 50 | 1010.7 |
| 20260502030143 | 56 | 16 | 2.0 | 12.0 | 0.00 | 0.00 | 0.00 | 49 | 1010.4 |
| 20260502025643 | 57 | 63 | 1.0 | 12.0 | 0.00 | 0.00 | 0.00 | 49 | 1010.3 |
| 20260502025143 | 57 | 13 | 2.0 | 12.0 | 0.00 | 0.00 | 0.00 | 48 | 1010.2 |
| 20260502024644 | 57 | 17 | 5.0 | 12.0 | 0.00 | 0.00 | 0.00 | 47 | 1010.1 |
| 20260502024144 | 58 | 2 | 5.0 | 12.0 | 0.00 | 0.00 | 0.00 | 45 | 1010.0 |
| 20260502023644 | 60 | 358 | 5.0 | 12.0 | 0.00 | 0.00 | 0.00 | 42 | 1009.9 |
| 20260502023143 | 62 | 348 | 3.0 | 12.0 | 0.00 | 0.00 | 0.00 | 38 | 1009.8 |
| 20260502022643 | 62 | 70 | 0.0 | 12.0 | 0.00 | 0.00 | 0.00 | 33 | 1009.2 |
| 20260502022143 | 62 | 70 | 1.0 | 12.0 | 0.00 | 0.00 | 0.00 | 33 | 1009.0 |
| 20260502021644 | 62 | 73 | 0.0 | 12.0 | 0.00 | 0.00 | 0.00 | 33 | 1009.0 |
| 20260502021144 | 63 | 19 | 1.0 | 12.0 | 0.00 | 0.00 | 0.00 | 32 | 1008.9 |
| 20260502020643 | 63 | 29 | 1.0 | 12.0 | 0.00 | 0.00 | 0.00 | 32 | 1008.8 |
| 20260502020143 | 63 | 5 | 2.0 | 12.0 | 0.00 | 0.00 | 0.00 | 31 | 1008.8 |
| 20260502015643 | 63 | 5 | 1.0 | 12.0 | 0.00 | 0.00 | 0.00 | 31 | 1008.7 |
| 20260502015143 | 63 | 5 | 2.0 | 12.0 | 0.00 | 0.00 | 0.00 | 31 | 1008.7 |
| 20260502014644 | 64 | 27 | 1.0 | 12.0 | 0.00 | 0.00 | 0.00 | 31 | 1008.6 |
| 20260502014143 | 64 | 5 | 2.0 | 12.0 | 0.00 | 0.00 | 0.00 | 30 | 1008.6 |
| 20260502013644 | 64 | 15 | 1.0 | 12.0 | 0.00 | 0.00 | 0.00 | 30 | 1008.6 |
| 20260502013143 | 64 | 18 | 2.0 | 12.0 | 0.00 | 0.00 | 0.00 | 30 | 1008.5 |
| 20260502012643 | 64 | 1 | 2.0 | 12.0 | 0.00 | 0.00 | 0.00 | 30 | 1008.5 |
| 20260502012142 | 64 | 5 | 0.0 | 12.0 | 0.00 | 0.00 | 0.00 | 30 | 1008.4 |
| 20260502011643 | 64 | 36 | 1.0 | 12.0 | 0.00 | 0.00 | 0.00 | 29 | 1008.3 |
| 20260502011144 | 65 | 12 | 2.0 | 12.0 | 0.00 | 0.00 | 0.00 | 29 | 1008.3 |
| 20260502010644 | 65 | 0 | 0.0 | 12.0 | 0.00 | 0.00 | 0.00 | 29 | 1008.2 |
| 20260502010144 | 65 | 14 | 2.0 | 12.0 | 0.00 | 0.00 | 0.00 | 29 | 1008.2 |
| 20260502005643 | 65 | 17 | 1.0 | 12.0 | 0.00 | 0.00 | 0.00 | 29 | 1008.2 |
| 20260502005143 | 65 | 7 | 2.0 | 12.0 | 0.00 | 0.00 | 0.00 | 28 | 1008.2 |
| 20260502004642 | 66 | 29 | 3.0 | 12.0 | 0.00 | 0.00 | 0.00 | 28 | 1008.2 |
| 20260502004143 | 66 | 8 | 3.0 | 12.0 | 0.00 | 0.00 | 0.00 | 28 | 1008.1 |
| 20260502003642 | 66 | 19 | 2.0 | 12.0 | 0.00 | 0.00 | 0.00 | 28 | 1008.1 |
| 20260502003142 | 66 | 32 | 2.0 | 12.0 | 0.00 | 0.00 | 0.00 | 27 | 1008.0 |
| 20260502002643 | 67 | 23 | 2.0 | 12.0 | 0.00 | 0.00 | 0.00 | 26 | 1008.0 |
| 20260502002144 | 67 | 16 | 1.0 | 12.0 | 0.00 | 0.00 | 0.00 | 26 | 1007.9 |
| 20260502001644 | 67 | 8 | 0.0 | 12.0 | 0.00 | 0.00 | 0.00 | 26 | 1007.8 |
| 20260502001144 | 67 | 11 | 1.0 | 12.0 | 0.00 | 0.00 | 0.00 | 25 | 1007.7 |
| 20260502000644 | 67 | 22 | 0.0 | 12.0 | 0.00 | 0.00 | 0.00 | 25 | 1007.7 |
| 20260502000143 | 67 | 21 | 1.0 | 12.0 | 0.00 | 0.00 | 0.00 | 25 | 1007.6 |
| 20260501235643 | 67 | 6 | 1.0 | 12.0 | 0.00 | 0.00 | 0.00 | 24 | 1007.6 |
| 20260501235143 | 67 | 18 | 1.0 | 12.0 | 0.00 | 0.00 | 0.00 | 24 | 1007.6 |
| 20260501234643 | 67 | 35 | 0.0 | 12.0 | 0.00 | 0.00 | 0.00 | 24 | 1007.6 |
| 20260501234143 | 67 | 160 | 0.0 | 12.0 | 0.00 | 0.00 | 0.00 | 24 | 1007.6 |
| 20260501233643 | 67 | 160 | 0.0 | 12.0 | 0.00 | 0.00 | 0.00 | 24 | 1007.6 |
| 20260501233143 | 68 | 132 | 0.0 | 12.0 | 0.00 | 0.00 | 0.00 | 25 | 1007.6 |
| 20260501232642 | 68 | 17 | 0.0 | 12.0 | 0.00 | 0.00 | 0.00 | 24 | 1007.6 |
| 20260501232142 | 67 | 17 | 0.0 | 12.0 | 0.00 | 0.00 | 0.00 | 25 | 1007.6 |
| 20260501231642 | 67 | 17 | 0.0 | 12.0 | 0.00 | 0.00 | 0.00 | 25 | 1007.7 |
| 20260501231142 | 67 | 17 | 0.0 | 12.0 | 0.00 | 0.00 | 0.00 | 24 | 1007.8 |
| 20260501230642 | 68 | 17 | 0.0 | 12.0 | 0.00 | 0.00 | 0.00 | 24 | 1007.8 |
| 20260501230142 | 68 | 17 | 0.0 | 12.0 | 0.00 | 0.00 | 0.00 | 24 | 1007.8 |
| 20260501225642 | 68 | 43 | 0.0 | 12.0 | 0.00 | 0.00 | 0.00 | 24 | 1007.9 |
| 20260501225142 | 68 | 45 | 0.0 | 12.0 | 0.00 | 0.00 | 0.00 | 24 | 1007.9 |
| 20260501224642 | 67 | 18 | 1.0 | 12.0 | 0.00 | 0.00 | 0.00 | 24 | 1007.9 |
| 20260501224143 | 67 | 28 | 0.0 | 12.0 | 0.00 | 0.00 | 0.00 | 25 | 1007.9 |
| 20260501223643 | 67 | 28 | 0.0 | 12.0 | 0.00 | 0.00 | 0.00 | 23 | 1007.9 |
| 20260501223143 | 67 | 28 | 0.0 | 12.0 | 0.00 | 0.00 | 0.00 | 23 | 1007.9 |
| 20260501222643 | 68 | 28 | 0.0 | 12.0 | 0.00 | 0.00 | 0.00 | 24 | 1007.9 |
| 20260501222143 | 68 | 46 | 0.0 | 12.0 | 0.00 | 0.00 | 0.00 | 24 | 1008.0 |
| 20260501221643 | 68 | 46 | 0.0 | 12.0 | 0.00 | 0.00 | 0.00 | 24 | 1008.0 |
| 20260501221143 | 68 | 5 | 1.0 | 12.0 | 0.00 | 0.00 | 0.00 | 24 | 1008.1 |
| 20260501220643 | 68 | 20 | 2.0 | 12.0 | 0.00 | 0.00 | 0.00 | 23 | 1008.1 |
| 20260501220143 | 68 | 23 | 0.0 | 12.0 | 0.00 | 0.00 | 0.00 | 23 | 1008.0 |
| 20260501215642 | 68 | 26 | 0.0 | 12.0 | 0.00 | 0.00 | 0.00 | 24 | 1008.1 |
| 20260501215142 | 68 | 26 | 0.0 | 12.0 | 0.00 | 0.00 | 0.00 | 24 | 1008.2 |
| 20260501214642 | 68 | 22 | 0.0 | 12.0 | 0.00 | 0.00 | 0.00 | 24 | 1008.3 |
| 20260501214142 | 68 | 21 | 0.0 | 12.0 | 0.00 | 0.00 | 0.00 | 24 | 1008.3 |
| 20260501213642 | 68 | 21 | 0.0 | 12.0 | 0.00 | 0.00 | 0.00 | 24 | 1008.2 |
| 20260501213142 | 68 | 30 | 0.0 | 12.0 | 0.00 | 0.00 | 0.00 | 24 | 1008.2 |
| 20260501212642 | 68 | 3 | 2.0 | 12.0 | 0.00 | 0.00 | 0.00 | 24 | 1008.2 |
| 20260501212141 | 68 | 29 | 1.0 | 7.0 | 0.00 | 0.00 | 0.00 | 24 | 1008.1 |
| 20260501211642 | 68 | 344 | 1.0 | 7.0 | 0.00 | 0.00 | 0.00 | 23 | 1008.1 |
| 20260501211142 | 68 | 328 | 1.0 | 7.0 | 0.00 | 0.00 | 0.00 | 24 | 1008.1 |
| 20260501210641 | 68 | 329 | 0.0 | 7.0 | 0.00 | 0.00 | 0.00 | 25 | 1008.1 |
| 20260501210141 | 68 | 236 | 0.0 | 7.0 | 0.00 | 0.00 | 0.00 | 24 | 1008.2 |
| 20260501205641 | 68 | 236 | 0.0 | 7.0 | 0.00 | 0.00 | 0.00 | 24 | 1008.2 |
| 20260501205142 | 68 | 234 | 0.0 | 7.0 | 0.00 | 0.00 | 0.00 | 24 | 1008.2 |
| 20260501204643 | 68 | 193 | 0.0 | 7.0 | 0.00 | 0.00 | 0.00 | 23 | 1008.2 |
| 20260501204143 | 68 | 347 | 1.0 | 7.0 | 0.00 | 0.00 | 0.00 | 24 | 1008.2 |
| 20260501203642 | 68 | 296 | 0.0 | 7.0 | 0.00 | 0.00 | 0.00 | 24 | 1008.2 |
| 20260501203143 | 69 | 294 | 0.0 | 7.0 | 0.00 | 0.00 | 0.00 | 23 | 1008.2 |
| 20260501202643 | 69 | 15 | 0.0 | 7.0 | 0.00 | 0.00 | 0.00 | 23 | 1008.1 |
| 20260501202142 | 69 | 198 | 0.0 | 7.0 | 0.00 | 0.00 | 0.00 | 23 | 1008.2 |
| 20260501201643 | 69 | 201 | 0.0 | 7.0 | 0.00 | 0.00 | 0.00 | 24 | 1008.2 |
| 20260501201141 | 69 | 104 | 0.0 | 7.0 | 0.00 | 0.00 | 0.00 | 24 | 1008.2 |
| 20260501200642 | 69 | 104 | 0.0 | 7.0 | 0.00 | 0.00 | 0.00 | 23 | 1008.2 |
| 20260501200025 | 69 | 94 | 0.0 | 7.0 | 0.00 | 0.00 | 0.00 | 23 | 1008.1 |
| 20260501195524 | 69 | 32 | 0.0 | 7.0 | 0.00 | 0.00 | 0.00 | 23 | 1008.2 |
| 20260501195024 | 69 | 207 | 0.0 | 7.0 | 0.00 | 0.00 | 0.00 | 23 | 1008.2 |
| 20260501194525 | 70 | 207 | 0.0 | 7.0 | 0.00 | 0.00 | 0.00 | 23 | 1008.2 |
| 20260501194025 | 70 | 333 | 1.0 | 7.0 | 0.00 | 0.00 | 0.00 | 23 | 1008.2 |
| 20260501193525 | 70 | 315 | 0.0 | 7.0 | 0.00 | 0.00 | 0.00 | 23 | 1008.2 |
| 20260501193025 | 71 | 312 | 0.0 | 7.0 | 0.00 | 0.00 | 0.00 | 22 | 1008.2 |
| 20260501192523 | 71 | 349 | 0.0 | 7.0 | 0.00 | 0.00 | 0.00 | 22 | 1008.2 |
| 20260501192024 | 71 | 24 | 0.0 | 5.0 | 0.00 | 0.00 | 0.00 | 22 | 1008.1 |
| 20260501191523 | 71 | 27 | 0.0 | 5.0 | 0.00 | 0.00 | 0.00 | 22 | 1008.2 |
| 20260501191023 | 71 | 27 | 0.0 | 5.0 | 0.00 | 0.00 | 0.00 | 22 | 1008.2 |
| 20260501190524 | 71 | 27 | 0.0 | 5.0 | 0.00 | 0.00 | 0.00 | 22 | 1008.1 |
| 20260501190025 | 71 | 27 | 0.0 | 5.0 | 0.00 | 0.00 | 0.00 | 20 | 1008.2 |
| 20260501185525 | 71 | 26 | 0.0 | 5.0 | 0.00 | 0.00 | 0.00 | 21 | 1008.2 |
| 20260501185024 | 71 | 27 | 0.0 | 5.0 | 0.00 | 0.00 | 0.00 | 20 | 1008.3 |
| 20260501184524 | 71 | 29 | 0.0 | 5.0 | 0.00 | 0.00 | 0.00 | 20 | 1008.4 |
| 20260501184024 | 71 | 29 | 0.0 | 5.0 | 0.00 | 0.00 | 0.00 | 22 | 1008.3 |
| 20260501183524 | 70 | 335 | 0.0 | 5.0 | 0.00 | 0.00 | 0.00 | 20 | 1008.3 |
| 20260501183025 | 70 | 310 | 0.0 | 5.0 | 0.00 | 0.00 | 0.00 | 23 | 1008.4 |
| 20260501182523 | 70 | 17 | 0.0 | 5.0 | 0.00 | 0.00 | 0.00 | 22 | 1008.4 |
| 20260501182024 | 70 | 169 | 0.0 | 5.0 | 0.00 | 0.00 | 0.00 | 22 | 1008.5 |
| 20260501181524 | 70 | 182 | 0.0 | 5.0 | 0.00 | 0.00 | 0.00 | 23 | 1008.6 |
| 20260501181024 | 69 | 189 | 0.0 | 5.0 | 0.00 | 0.00 | 0.00 | 23 | 1008.6 |
| 20260501180524 | 69 | 191 | 0.0 | 5.0 | 0.00 | 0.00 | 0.00 | 23 | 1008.6 |
| 20260501180024 | 69 | 191 | 0.0 | 5.0 | 0.00 | 0.00 | 0.00 | 23 | 1008.7 |
| 20260501175524 | 69 | 37 | 0.0 | 5.0 | 0.00 | 0.00 | 0.00 | 22 | 1008.8 |
| 20260501175024 | 69 | 30 | 1.0 | 5.0 | 0.00 | 0.00 | 0.00 | 23 | 1008.8 |
| 20260501174523 | 69 | 188 | 0.0 | 5.0 | 0.00 | 0.00 | 0.00 | 23 | 1008.8 |
| 20260501174027 | 69 | 191 | 0.0 | 5.0 | 0.00 | 0.00 | 0.00 | 24 | 1008.8 |
| 20260501173527 | 69 | 191 | 0.0 | 5.0 | 0.00 | 0.00 | 0.00 | 24 | 1008.8 |
| 20260501173027 | 69 | 191 | 0.0 | 5.0 | 0.00 | 0.00 | 0.00 | 24 | 1008.9 |
| 20260501172527 | 69 | 191 | 0.0 | 5.0 | 0.00 | 0.00 | 0.00 | 23 | 1008.9 |
| 20260501172029 | 68 | 202 | 0.0 | 5.0 | 0.00 | 0.00 | 0.00 | 24 | 1009.0 |
| 20260501171529 | 68 | 198 | 1.0 | 5.0 | 0.00 | 0.00 | 0.00 | 26 | 1009.1 |
| 20260501171029 | 68 | 355 | 0.0 | 5.0 | 0.00 | 0.00 | 0.00 | 25 | 1009.1 |
| 20260501170529 | 68 | 355 | 1.0 | 5.0 | 0.00 | 0.00 | 0.00 | 27 | 1009.0 |
| 20260501170028 | 68 | 15 | 1.0 | 4.0 | 0.00 | 0.00 | 0.00 | 27 | 1009.2 |
| 20260501165528 | 67 | 38 | 0.0 | 3.0 | 0.00 | 0.00 | 0.00 | 24 | 1009.2 |
| 20260501165028 | 66 | 35 | 0.0 | 3.0 | 0.00 | 0.00 | 0.00 | 28 | 1009.4 |
| 20260501164528 | 66 | 359 | 0.0 | 3.0 | 0.00 | 0.00 | 0.00 | 28 | 1009.4 |
| 20260501164028 | 65 | 205 | 0.0 | 3.0 | 0.00 | 0.00 | 0.00 | 28 | 1009.4 |
| 20260501163528 | 65 | 203 | 0.0 | 3.0 | 0.00 | 0.00 | 0.00 | 30 | 1009.4 |
| 20260501163029 | 65 | 203 | 1.0 | 3.0 | 0.00 | 0.00 | 0.00 | 32 | 1009.5 |
| 20260501162529 | 64 | 215 | 0.0 | 3.0 | 0.00 | 0.00 | 0.00 | 32 | 1009.6 |
| 20260501162027 | 64 | 215 | 0.0 | 3.0 | 0.00 | 0.00 | 0.00 | 33 | 1009.6 |
| 20260501161528 | 63 | 215 | 0.0 | 3.0 | 0.00 | 0.00 | 0.00 | 34 | 1009.7 |
| 20260501161029 | 62 | 223 | 0.0 | 3.0 | 0.00 | 0.00 | 0.00 | 35 | 1009.7 |
| 20260501160527 | 62 | 223 | 0.0 | 3.0 | 0.00 | 0.00 | 0.00 | 35 | 1009.8 |
| 20260501160028 | 61 | 223 | 0.0 | 3.0 | 0.00 | 0.00 | 0.00 | 35 | 1009.9 |
| 20260501155527 | 61 | 184 | 0.0 | 3.0 | 0.00 | 0.00 | 0.00 | 36 | 1009.9 |
| 20260501155027 | 61 | 200 | 0.0 | 3.0 | 0.00 | 0.00 | 0.00 | 36 | 1010.0 |
| 20260501154528 | 60 | 199 | 0.0 | 3.0 | 0.00 | 0.00 | 0.00 | 36 | 1010.1 |
| 20260501154027 | 60 | 199 | 0.0 | 3.0 | 0.00 | 0.00 | 0.00 | 36 | 1010.2 |